DAL360 KATL-KBNA

Flight info

Callsign DAL360
Flight time 0h 40m
Altitude 24000
Route PENCL2 PENCL JAGIR SWFFT3
Aircraft A21N/M-SDE2E3FGHIRWXY/LB1

Departure

Time 2026-05-05 01:07
Airport Hartsfield Jackson Atlanta International Airport (KATL)

Arrival

Time 2026-05-05 01:47
Airport Nashville International Airport (KBNA)
Time Latitude Longitude Altitude Speed Heading
2026-05-05 00:55 33.63958 -84.43646 1012 ft 0 kts 90°
2026-05-05 00:56 33.63958 -84.43647 1012 ft 1 kts 90°
2026-05-05 00:57 33.63957 -84.43676 1012 ft 4 kts 84°
2026-05-05 00:57 33.63952 -84.43707 1012 ft 4 kts 68°
2026-05-05 00:57 33.63941 -84.43729 1012 ft 1 kts 45°
2026-05-05 00:59 33.63948 -84.43725 1012 ft 3 kts 19°
2026-05-05 01:00 33.63982 -84.43719 1012 ft 7 kts 359°
2026-05-05 01:00 33.64041 -84.43720 1012 ft 10 kts 359°
2026-05-05 01:00 33.64120 -84.43723 1012 ft 12 kts 359°
2026-05-05 01:00 33.64214 -84.43725 1012 ft 15 kts
2026-05-05 01:01 33.64322 -84.43720 1012 ft 17 kts
2026-05-05 01:01 33.64415 -84.43720 1012 ft 11 kts 359°
2026-05-05 01:01 33.64460 -84.43648 1012 ft 13 kts 89°
2026-05-05 01:01 33.64460 -84.43529 1012 ft 15 kts 89°
2026-05-05 01:02 33.64461 -84.43392 1012 ft 17 kts 90°
2026-05-05 01:02 33.64460 -84.43238 1012 ft 19 kts 90°
2026-05-05 01:02 33.64459 -84.43070 1012 ft 21 kts 90°
2026-05-05 01:02 33.64458 -84.42886 1012 ft 23 kts 90°
2026-05-05 01:03 33.64467 -84.42689 1012 ft 25 kts 84°
2026-05-05 01:03 33.64468 -84.42501 1012 ft 22 kts 91°
2026-05-05 01:03 33.64470 -84.42307 1011 ft 24 kts 89°
2026-05-05 01:03 33.64493 -84.42212 1012 ft 11 kts 62°
2026-05-05 01:04 33.64535 -84.42119 1011 ft 14 kts 63°
2026-05-05 01:04 33.64543 -84.41856 1012 ft 18 kts 90°
2026-05-05 01:04 33.64543 -84.41697 1012 ft 20 kts 90°
2026-05-05 01:05 33.64543 -84.41522 1012 ft 22 kts 90°
2026-05-05 01:05 33.64543 -84.41333 1012 ft 24 kts 90°
2026-05-05 01:05 33.64544 -84.41129 1012 ft 25 kts 90°
2026-05-05 01:05 33.64543 -84.40912 1011 ft 26 kts 90°
2026-05-05 01:06 33.64581 -84.40804 1011 ft 15 kts
2026-05-05 01:06 33.64671 -84.40816 1011 ft 12 kts 314°
2026-05-05 01:06 33.64680 -84.40938 1012 ft 30 kts 269°
2026-05-05 01:06 33.64704 -84.41581 1013 ft 126 kts 262°
2026-05-05 01:07 33.64699 -84.42967 1336 ft 189 kts 270°
2026-05-05 01:07 33.64731 -84.44526 2656 ft 182 kts 266°
2026-05-05 01:07 33.64751 -84.45970 3585 ft 175 kts 268°
2026-05-05 01:07 33.65084 -84.47441 4086 ft 196 kts 290°
2026-05-05 01:08 33.65693 -84.48994 4653 ft 215 kts 291°
2026-05-05 01:08 33.66376 -84.50737 5100 ft 242 kts 292°
2026-05-05 01:08 33.67119 -84.52638 5709 ft 258 kts 292°
2026-05-05 01:08 33.67891 -84.54618 6604 ft 264 kts 292°
2026-05-05 01:09 33.68808 -84.56504 7497 ft 269 kts 307°
2026-05-05 01:09 33.70297 -84.57891 8415 ft 276 kts 333°
2026-05-05 01:09 33.72186 -84.58377 9333 ft 282 kts 356°
2026-05-05 01:09 33.74164 -84.58330 10093 ft 287 kts 360°
2026-05-05 01:10 33.76165 -84.58244 10300 ft 288 kts 359°
2026-05-05 01:10 33.78190 -84.58179 10826 ft 296 kts 359°
2026-05-05 01:10 33.80278 -84.58131 11543 ft 303 kts 359°
2026-05-05 01:10 33.82406 -84.58102 12230 ft 313 kts 358°
2026-05-05 01:11 33.84647 -84.58190 12611 ft 331 kts 351°
2026-05-05 01:11 33.86951 -84.58786 12908 ft 349 kts 342°
2026-05-05 01:11 33.89324 -84.59584 13220 ft 368 kts 342°
2026-05-05 01:11 33.91859 -84.60443 13510 ft 387 kts 342°
2026-05-05 01:12 33.94501 -84.61322 13970 ft 398 kts 342°
2026-05-05 01:12 33.97192 -84.62198 14576 ft 403 kts 342°
2026-05-05 01:12 33.99903 -84.63076 15237 ft 405 kts 342°
2026-05-05 01:12 34.02645 -84.63955 15913 ft 409 kts 342°
2026-05-05 01:13 34.05403 -84.64842 16599 ft 412 kts 342°
2026-05-05 01:13 34.08186 -84.65734 17261 ft 415 kts 342°
2026-05-05 01:13 34.10994 -84.66633 17932 ft 418 kts 342°
2026-05-05 01:13 34.13815 -84.67549 18574 ft 421 kts 341°
2026-05-05 01:14 34.16652 -84.68482 19146 ft 424 kts 341°
2026-05-05 01:14 34.19507 -84.69416 19735 ft 427 kts 341°
2026-05-05 01:14 34.22385 -84.70352 20308 ft 429 kts 342°
2026-05-05 01:14 34.25233 -84.71427 20867 ft 429 kts 335°
2026-05-05 01:15 34.27884 -84.73068 21409 ft 429 kts 326°
2026-05-05 01:15 34.30427 -84.74967 21953 ft 431 kts 325°
2026-05-05 01:15 34.32941 -84.76883 22499 ft 434 kts 325°
2026-05-05 01:15 34.35515 -84.78834 23042 ft 437 kts 325°
2026-05-05 01:16 34.38098 -84.80792 23579 ft 440 kts 326°
2026-05-05 01:16 34.40706 -84.82757 23902 ft 443 kts 326°
2026-05-05 01:16 34.43336 -84.84738 24003 ft 449 kts 326°
2026-05-05 01:16 34.45985 -84.86735 24030 ft 450 kts 326°
2026-05-05 01:17 34.48650 -84.88747 24022 ft 450 kts 326°
2026-05-05 01:17 34.50448 -84.90105 24018 ft 450 kts 326°
2026-05-05 01:17 34.53102 -84.92113 24015 ft 450 kts 326°
2026-05-05 01:17 34.55764 -84.94128 24012 ft 450 kts 326°
2026-05-05 01:18 34.58420 -84.96138 24011 ft 450 kts 326°
2026-05-05 01:18 34.61039 -84.98124 24010 ft 450 kts 326°
2026-05-05 01:18 34.63692 -85.00138 24027 ft 450 kts 326°
2026-05-05 01:18 34.66352 -85.02161 24024 ft 450 kts 326°
2026-05-05 01:19 34.68995 -85.04199 24015 ft 451 kts 325°
2026-05-05 01:19 34.71642 -85.06250 24016 ft 451 kts 325°
2026-05-05 01:19 34.74291 -85.08302 24007 ft 451 kts 325°
2026-05-05 01:19 34.76940 -85.10352 24004 ft 451 kts 325°
2026-05-05 01:20 34.79591 -85.12404 24006 ft 451 kts 325°
2026-05-05 01:20 34.82239 -85.14457 23994 ft 451 kts 325°
2026-05-05 01:20 34.84892 -85.16513 24002 ft 451 kts 325°
2026-05-05 01:20 34.87542 -85.18569 24006 ft 451 kts 325°
2026-05-05 01:21 34.90183 -85.20620 24010 ft 451 kts 325°
2026-05-05 01:21 34.92837 -85.22683 24010 ft 451 kts 325°
2026-05-05 01:21 34.95466 -85.24731 24007 ft 447 kts 325°
2026-05-05 01:21 34.98089 -85.26780 23997 ft 446 kts 325°
2026-05-05 01:22 35.00708 -85.28818 24001 ft 446 kts 325°
2026-05-05 01:22 35.03291 -85.30834 24002 ft 446 kts 325°
2026-05-05 01:22 35.05942 -85.32908 23987 ft 447 kts 325°
2026-05-05 01:22 35.08524 -85.34920 23994 ft 446 kts 325°
2026-05-05 01:23 35.11144 -85.36963 23990 ft 446 kts 325°
2026-05-05 01:23 35.13760 -85.39013 23988 ft 447 kts 324°
2026-05-05 01:23 35.16258 -85.41249 24000 ft 444 kts 317°
2026-05-05 01:23 35.18457 -85.43887 24002 ft 442 kts 312°
2026-05-05 01:24 35.20561 -85.46575 23789 ft 436 kts 311°
2026-05-05 01:24 35.22653 -85.49261 23373 ft 435 kts 312°
2026-05-05 01:24 35.24741 -85.51925 22918 ft 432 kts 312°
2026-05-05 01:24 35.26813 -85.54571 22466 ft 429 kts 312°
2026-05-05 01:25 35.28871 -85.57197 21963 ft 422 kts 311°
2026-05-05 01:25 35.30875 -85.59757 21452 ft 410 kts 311°
2026-05-05 01:25 35.32817 -85.62238 20943 ft 399 kts 311°
2026-05-05 01:25 35.34715 -85.64666 20444 ft 389 kts 311°
2026-05-05 01:26 35.36560 -85.67030 19947 ft 380 kts 311°
2026-05-05 01:26 35.38371 -85.69349 19458 ft 372 kts 311°
2026-05-05 01:26 35.40119 -85.71587 18987 ft 365 kts 311°
2026-05-05 01:26 35.41860 -85.73817 18561 ft 357 kts 311°
2026-05-05 01:27 35.43556 -85.75994 18254 ft 351 kts 311°
2026-05-05 01:27 35.45233 -85.78150 17943 ft 349 kts 311°
2026-05-05 01:27 35.46911 -85.80308 17646 ft 348 kts 311°
2026-05-05 01:27 35.48579 -85.82454 17357 ft 347 kts 311°
2026-05-05 01:28 35.50241 -85.84592 17087 ft 346 kts 311°
2026-05-05 01:28 35.51899 -85.86729 16817 ft 345 kts 310°
2026-05-05 01:28 35.53557 -85.88867 16564 ft 344 kts 310°
2026-05-05 01:28 35.55202 -85.90991 16311 ft 343 kts 310°
2026-05-05 01:29 35.56811 -85.93106 16062 ft 342 kts 309°
2026-05-05 01:29 35.58412 -85.95259 15812 ft 341 kts 309°
2026-05-05 01:29 35.60010 -85.97407 15563 ft 340 kts 309°
2026-05-05 01:29 35.61607 -85.99550 15317 ft 339 kts 309°
2026-05-05 01:30 35.63199 -86.01686 15072 ft 338 kts 309°
2026-05-05 01:30 35.64790 -86.03819 14831 ft 338 kts 309°
2026-05-05 01:30 35.66368 -86.05951 14590 ft 337 kts 309°
2026-05-05 01:30 35.67941 -86.08075 14353 ft 336 kts 309°
2026-05-05 01:31 35.69519 -86.10197 14131 ft 334 kts 309°
2026-05-05 01:31 35.71062 -86.12322 13895 ft 332 kts 306°
2026-05-05 01:31 35.72464 -86.14569 13648 ft 330 kts 303°
2026-05-05 01:31 35.73829 -86.16832 13387 ft 328 kts 303°
2026-05-05 01:32 35.75183 -86.19086 13154 ft 326 kts 303°
2026-05-05 01:32 35.76528 -86.21326 12915 ft 325 kts 303°
2026-05-05 01:32 35.77851 -86.23531 12681 ft 324 kts 303°
2026-05-05 01:32 35.79187 -86.25762 12455 ft 323 kts 303°
2026-05-05 01:33 35.80518 -86.27982 12218 ft 322 kts 303°
2026-05-05 01:33 35.81848 -86.30203 11992 ft 322 kts 303°
2026-05-05 01:33 35.83174 -86.32421 11769 ft 321 kts 303°
2026-05-05 01:33 35.84494 -86.34634 11546 ft 318 kts 303°
2026-05-05 01:34 35.85778 -86.36781 11321 ft 305 kts 303°
2026-05-05 01:34 35.87015 -86.38848 11070 ft 293 kts 303°
2026-05-05 01:34 35.88202 -86.40834 10880 ft 284 kts 303°
2026-05-05 01:34 35.89367 -86.42788 10706 ft 282 kts 303°
2026-05-05 01:35 35.90531 -86.44739 10545 ft 282 kts 303°
2026-05-05 01:35 35.91691 -86.46686 10412 ft 281 kts 303°
2026-05-05 01:35 35.92850 -86.48633 10301 ft 281 kts 303°
2026-05-05 01:35 35.94008 -86.50578 10179 ft 281 kts 303°
2026-05-05 01:36 35.95145 -86.52491 10018 ft 277 kts 303°
2026-05-05 01:36 35.96267 -86.54378 9781 ft 268 kts 302°
2026-05-05 01:36 35.97350 -86.56203 9529 ft 259 kts 302°
2026-05-05 01:36 35.98420 -86.57971 9298 ft 257 kts 305°
2026-05-05 01:37 35.99781 -86.59371 9049 ft 257 kts 329°
2026-05-05 01:37 36.01512 -86.59851 8799 ft 259 kts 358°
2026-05-05 01:37 36.03267 -86.59394 8569 ft 259 kts 15°
2026-05-05 01:37 36.04967 -86.58650 8368 ft 259 kts 17°
2026-05-05 01:38 36.06668 -86.57903 8220 ft 260 kts 16°
2026-05-05 01:38 36.08372 -86.57179 8086 ft 259 kts 15°
2026-05-05 01:38 36.10070 -86.56472 7852 ft 258 kts 15°
2026-05-05 01:38 36.11770 -86.55771 7547 ft 259 kts 15°
2026-05-05 01:39 36.13495 -86.55072 7222 ft 260 kts 15°
2026-05-05 01:39 36.15204 -86.54385 6950 ft 257 kts 15°
2026-05-05 01:39 36.16900 -86.53706 6751 ft 256 kts 15°
2026-05-05 01:39 36.18601 -86.53024 6550 ft 257 kts 15°
2026-05-05 01:40 36.20282 -86.52351 6358 ft 256 kts 15°
2026-05-05 01:40 36.21985 -86.51664 6114 ft 258 kts 15°
2026-05-05 01:40 36.23690 -86.50978 5885 ft 256 kts 15°
2026-05-05 01:40 36.25416 -86.50636 5500 ft 250 kts 348°
2026-05-05 01:41 36.27032 -86.51260 5090 ft 238 kts 323°
2026-05-05 01:41 36.28256 -86.52515 4835 ft 218 kts 302°
2026-05-05 01:41 36.29030 -86.54001 4661 ft 197 kts 284°
2026-05-05 01:41 36.29390 -86.55590 4344 ft 187 kts 271°
2026-05-05 01:42 36.29450 -86.57170 4028 ft 181 kts 260°
2026-05-05 01:42 36.29250 -86.58665 3729 ft 171 kts 249°
2026-05-05 01:42 36.28820 -86.59992 3448 ft 163 kts 238°
2026-05-05 01:42 36.28193 -86.61144 3180 ft 163 kts 227°
2026-05-05 01:43 36.27366 -86.62134 2970 ft 164 kts 218°
2026-05-05 01:43 36.26415 -86.62871 2964 ft 163 kts 208°
2026-05-05 01:43 36.25348 -86.63365 2975 ft 164 kts 199°
2026-05-05 01:43 36.24249 -86.63762 2700 ft 164 kts 200°
2026-05-05 01:44 36.23162 -86.64184 2378 ft 163 kts 201°
2026-05-05 01:44 36.22068 -86.64616 2070 ft 170 kts 201°
2026-05-05 01:44 36.21039 -86.65014 2092 ft 138 kts 200°
2026-05-05 01:44 36.20198 -86.65352 1977 ft 124 kts 202°
2026-05-05 01:45 36.19375 -86.65672 1790 ft 124 kts 201°
2026-05-05 01:45 36.18551 -86.65991 1617 ft 124 kts 200°
2026-05-05 01:45 36.17732 -86.66316 1438 ft 125 kts 200°
2026-05-05 01:45 36.16892 -86.66641 1263 ft 125 kts 199°
2026-05-05 01:46 36.16058 -86.66974 1062 ft 129 kts 199°
2026-05-05 01:46 36.15197 -86.67303 923 ft 128 kts 197°
2026-05-05 01:46 36.14356 -86.67625 736 ft 128 kts 198°
2026-05-05 01:46 36.13509 -86.67967 580 ft 124 kts 200°
2026-05-05 01:47 36.12873 -86.68216 589 ft 56 kts 197°
2026-05-05 01:47 36.12650 -86.68305 592 ft 31 kts 198°
2026-05-05 01:47 36.12439 -86.68385 593 ft 33 kts 197°
2026-05-05 01:47 36.12260 -86.68434 600 ft 13 kts 152°
2026-05-05 01:48 36.12176 -86.68362 601 ft 15 kts 148°
2026-05-05 01:48 36.12199 -86.68278 594 ft 14 kts 20°
2026-05-05 01:48 36.12293 -86.68239 591 ft 15 kts 17°
2026-05-05 01:48 36.12401 -86.68200 590 ft 17 kts 14°
2026-05-05 01:49 36.12523 -86.68161 589 ft 19 kts 15°
2026-05-05 01:49 36.12655 -86.68111 587 ft 21 kts 17°
2026-05-05 01:49 36.12800 -86.68057 588 ft 23 kts 16°
2026-05-05 01:49 36.12949 -86.68001 584 ft 23 kts 18°
2026-05-05 01:50 36.13104 -86.67939 583 ft 24 kts 18°
2026-05-05 01:50 36.13268 -86.67875 579 ft 25 kts 17°
2026-05-05 01:50 36.13442 -86.67805 580 ft 27 kts 19°
2026-05-05 01:50 36.13507 -86.67776 577 ft 6 kts 24°
2026-05-05 01:51 36.13524 -86.67722 575 ft 8 kts 96°
2026-05-05 01:51 36.13507 -86.67646 574 ft 10 kts 110°
2026-05-05 01:51 36.13483 -86.67557 572 ft 12 kts 107°
2026-05-05 01:51 36.13457 -86.67454 574 ft 14 kts 107°
2026-05-05 01:52 36.13424 -86.67327 572 ft 17 kts 108°
2026-05-05 01:52 36.13387 -86.67183 579 ft 14 kts 108°
2026-05-05 01:52 36.13357 -86.67085 577 ft 10 kts 131°
2026-05-05 01:52 36.13311 -86.67089 574 ft 3 kts 206°
2026-05-05 01:53 36.13296 -86.67099 577 ft 1 kts 208°
2026-05-05 01:53 36.13293 -86.67101 575 ft 0 kts 208°